Airfield :
LOGIN :

Register | Disclaimer

   EN    FR    IT 

 










Legend :    VFR   Marginal VFR   IFR   Intensive IFR   Very Intensive IFR
Visi :
Ceiling :
>= 8 km
>= 3000ft
5 to 8 km
1000 to 3000 ft
1500m to 5 km
500 to 1000 ft
800 to 1500m
200 to 500 ft
< 800m
< 200 ft
Symbols :   Thunderstorms  Fog  Heavy snow  Heavy precipitations  Wind > 20 kt
SIGMETs :     Misc.  Thunderstorms  Icing  Turbulence  Mountain Waves  Volcanic Ashes







- Airport Elevation : 38 ft
- IATA code : ADX


EGQL - RAF Leuchars

CURRENT METAR :
  • 250350Z 26008KT 9999 BKN042 06/05 Q1002 BLU

EXPIRED METARs :
  • 250250Z 28005KT CAVOK 04/03 Q1003 BLU
  • 250150Z 28002KT CAVOK 05/04 Q1003 BLU

TAF TAF EGQL
Valid from the 25 at 03:00 until the 25 at 12:00 UTC


250133Z 2503/2512 23006KT 9999 SCT045
PROB30
TEMPO 2506/2509 SCT014
TEMPO 2508/2512 24015G25KT 6000 SHRA SCT016CB
PROB30
TEMPO 2510/2512 4000 +SHGS +SHRA
No reported NOTAMs for that airfield.



MET'MAP, your aeronautical weather chart ! - Copyright ORBIFLY December 2007 - Disclaimer

ORBIFLY MET'MAP TEAM :

Programming & Development : Alexandra Zaïnal
Concept & Development : Baudouin d'Aumeries
Co-Development & Prog : Marc-Olivier Méhu
Technical & hardware support : Manuel Goepfert

Contact : metmap@orbifly.com




SOURCES & CREDITS :

   NOAA